Powrót do katalogu

STARLINK-37559

AktywnyŁącznośćVLEO
NORAD 100295·PAYLOAD·🇺🇸 United States

Wystrzelony Aug 11, 2026 z Cape Canaveral Space Force Station

Loading…

Następne Przeloty (najbliższe 24 godziny)

TLE

NieaktualneSource: Space-Track

Epoka: Sep 7, 2026, 17:11 UTC

1 A0295U 26183Z   26250.71624774 -.00938747  00000-0 -71822-2 0  9991
2 A0295  53.1598 319.8197 0002073 158.5979 201.5128 15.74101414  4307

Śledź STARLINK-37559 w czasie rzeczywistym z AllMySat

Download on the App Store